QPF
0.00 0.00 0.00 0.00 0.02 0.06 0.06 0.04 0.01 0.00 0.00 0.00 0.00 0.00 0.02 0.08 0.08 0.08 0.02 0.00 0.00 0.00 0.00 0.00 0.00 0.00 0.01 0.01 0.01 0.02 0.02 0.03 0.03 0.03 0.02 0.01 0.01 0.01 0.01 0.01 0.01 0.01 0.01 0.01 0.01 0.01 0.01 0.01 0.01
0.00 0.00 0.00 0.00 0.03 0.06 0.05 0.03 0.01 0.00 0.00 0.00 0.00 0.01 0.04 0.04 0.02 0.00 0.00 0.00 0.00 0.00 0.00 0.00 0.00 0.00 0.01 0.01 0.01 0.02 0.02 0.02 0.02 0.02 0.01 0.01 0.01 0.01 0.01 0.01 0.01 0.01 0.01 0.01 0.01 0.01 0.01 0.01 0.01
0.00 0.00 0.00 0.01 0.01 0.01 0.01 0.01 0.00 0.00 0.00 0.00 0.00 0.01 0.04 0.03 0.00 0.00 0.00 0.00 0.00 0.00 0.00 0.00 0.00 0.00 0.01 0.01 0.01 0.01 0.01 0.02 0.01 0.01 0.01 0.01 0.01 0.01 0.01 0.01 0.01 0.02 0.02 0.01 0.01 0.01 0.01 0.01 0.01
0.00 0.00 0.00 0.00 0.00 0.00 0.00 0.00 0.00 0.00 0.00 0.00 0.00 0.01 0.02 0.01 0.00 0.00 0.00 0.00 0.00 0.00 0.00 0.00 0.00 0.00 0.01 0.01 0.01 0.01 0.01 0.01 0.01 0.01 0.01 0.01 0.01 0.01 0.01 0.01 0.01 0.01 0.01 0.01 0.01 0.01 0.01 0.00 0.01
0.00 0.00 0.00 0.00 0.00 0.00 0.00 0.00 0.00 0.00 0.00 0.00 0.01 0.05 0.08 0.02 0.00 0.00 0.00 0.01 0.00 0.00 0.00 0.00 0.00 0.00 0.00 0.01 0.01 0.01 0.01 0.01 0.01 0.01 0.01 0.02 0.02 0.02 0.01 0.01 0.01 0.01 0.01 0.00 0.01 0.01 0.01 0.00 0.00
0.00 0.00 0.00 0.00 0.00 0.00 0.00 0.00 0.00 0.00 0.01 0.00 0.01 0.05 0.10 0.03 0.00 0.00 0.00 0.01 0.00 0.00 0.01 0.01 0.00 0.00 0.01 0.01 0.01 0.01 0.01 0.01 0.01 0.01 0.01 0.02 0.03 0.02 0.02 0.02 0.02 0.02 0.01 0.01 0.01 0.01 0.01 0.00 0.01
0.00 0.00 0.00 0.00 0.00 0.00 0.00 0.00 0.00 0.00 0.00 0.00 0.00 0.06 0.11 0.03 0.01 0.00 0.00 0.01 0.01 0.01 0.01 0.01 0.02 0.02 0.02 0.03 0.03 0.03 0.03 0.02 0.02 0.02 0.02 0.02 0.03 0.03 0.02 0.02 0.02 0.03 0.03 0.02 0.01 0.01 0.01 0.01 0.01
0.00 0.00 0.00 0.00 0.00 0.00 0.00 0.00 0.00 0.00 0.00 0.00 0.01 0.06 0.16 0.06 0.02 0.01 0.01 0.01 0.01 0.02 0.02 0.03 0.04 0.06 0.06 0.03 0.03 0.03 0.03 0.02 0.02 0.02 0.02 0.02 0.03 0.03 0.04 0.05 0.04 0.03 0.02 0.02 0.01 0.01 0.01 0.01 0.01
0.00 0.00 0.00 0.00 0.00 0.00 0.00 0.00 0.00 0.00 0.01 0.00 0.01 0.03 0.16 0.08 0.02 0.02 0.03 0.04 0.05 0.05 0.04 0.03 0.03 0.04 0.09 0.08 0.04 0.03 0.03 0.03 0.03 0.05 0.03 0.04 0.07 0.09 0.09 0.07 0.06 0.04 0.04 0.03 0.03 0.02 0.02 0.01 0.01
0.00 0.00 0.00 0.00 0.00 0.00 0.00 0.00 0.00 0.00 0.03 0.03 0.03 0.04 0.06 0.07 0.04 0.04 0.04 0.05 0.06 0.07 0.05 0.04 0.04 0.04 0.07 0.10 0.10 0.09 0.11 0.11 0.11 0.14 0.10 0.10 0.13 0.12 0.10 0.09 0.07 0.04 0.04 0.05 0.05 0.04 0.02 0.02 0.03
0.00 0.00 0.00 0.00 0.00 0.00 0.00 0.01 0.01 0.03 0.05 0.09 0.09 0.10 0.07 0.07 0.07 0.07 0.06 0.07 0.07 0.08 0.06 0.06 0.06 0.07 0.07 0.11 0.10 0.12 0.15 0.19 0.19 0.15 0.15 0.15 0.13 0.10 0.10 0.14 0.10 0.06 0.06 0.09 0.10 0.08 0.07 0.06 0.07
0.00 0.00 0.00 0.00 0.00 0.00 0.00 0.01 0.02 0.08 0.13 0.16 0.08 0.09 0.07 0.12 0.11 0.11 0.09 0.12 0.12 0.10 0.08 0.08 0.08 0.09 0.10 0.09 0.10 0.11 0.09 0.11 0.12 0.13 0.12 0.13 0.14 0.14 0.14 0.15 0.13 0.12 0.12 0.14 0.13 0.14 0.13 0.10 0.07
0.00 0.00 0.00 0.00 0.00 0.00 0.00 0.01 0.03 0.04 0.04 0.03 0.02 0.04 0.06 0.08 0.16 0.22 0.16 0.15 0.14 0.10 0.11 0.12 0.13 0.10 0.09 0.11 0.12 0.12 0.09 0.08 0.09 0.12 0.13 0.13 0.13 0.12 0.14 0.13 0.11 0.10 0.11 0.12 0.12 0.12 0.12 0.10 0.06
0.00 0.00 0.00 0.00 0.00 0.00 0.00 0.00 0.03 0.05 0.03 0.01 0.02 0.05 0.09 0.09 0.16 0.26 0.20 0.14 0.13 0.11 0.12 0.11 0.10 0.09 0.10 0.11 0.12 0.12 0.09 0.09 0.10 0.10 0.10 0.09 0.09 0.08 0.10 0.10 0.08 0.07 0.08 0.09 0.09 0.09 0.10 0.10 0.06
0.00 0.00 0.00 0.00 0.00 0.00 0.01 0.02 0.05 0.06 0.02 0.02 0.03 0.05 0.13 0.12 0.14 0.15 0.15 0.12 0.10 0.11 0.12 0.11 0.09 0.10 0.10 0.12 0.10 0.08 0.06 0.06 0.08 0.08 0.08 0.06 0.06 0.06 0.06 0.07 0.07 0.06 0.07 0.07 0.06 0.06 0.08 0.08 0.07
0.00 0.00 0.00 0.00 0.00 0.00 0.02 0.06 0.07 0.03 0.02 0.02 0.03 0.04 0.10 0.17 0.15 0.15 0.17 0.17 0.13 0.10 0.11 0.10 0.09 0.09 0.10 0.10 0.10 0.08 0.07 0.05 0.04 0.05 0.06 0.04 0.04 0.05 0.04 0.04 0.04 0.05 0.05 0.05 0.05 0.06 0.08 0.08 0.08
0.00 0.00 0.01 0.01 0.00 0.00 0.01 0.02 0.02 0.01 0.01 0.01 0.03 0.06 0.08 0.22 0.21 0.13 0.17 0.15 0.13 0.12 0.12 0.12 0.12 0.11 0.10 0.10 0.09 0.08 0.07 0.06 0.05 0.05 0.05 0.04 0.02 0.03 0.03 0.03 0.03 0.03 0.03 0.03 0.03 0.04 0.05 0.06 0.06
0.00 0.00 0.00 0.01 0.00 0.00 0.00 0.01 0.01 0.00 0.00 0.02 0.05 0.07 0.08 0.15 0.20 0.16 0.13 0.12 0.13 0.13 0.14 0.13 0.11 0.11 0.11 0.10 0.10 0.10 0.08 0.07 0.06 0.04 0.03 0.02 0.03 0.02 0.02 0.03 0.02 0.01 0.02 0.02 0.02 0.03 0.03 0.03 0.04
0.00 0.00 0.00 0.00 0.00 0.00 0.00 0.00 0.00 0.00 0.00 0.01 0.05 0.08 0.09 0.11 0.13 0.14 0.13 0.11 0.11 0.13 0.13 0.12 0.12 0.10 0.10 0.10 0.09 0.08 0.07 0.07 0.05 0.03 0.02 0.02 0.01 0.01 0.01 0.01 0.02 0.01 0.01 0.01 0.01 0.01 0.02 0.03 0.03
0.00 0.00 0.00 0.01 0.00 0.00 0.00 0.00 0.00 0.00 0.00 0.01 0.03 0.06 0.07 0.08 0.11 0.12 0.12 0.12 0.11 0.12 0.11 0.08 0.08 0.07 0.08 0.08 0.08 0.06 0.06 0.06 0.05 0.03 0.03 0.01 0.00 0.00 0.01 0.01 0.01 0.01 0.01 0.01 0.01 0.01 0.01 0.01 0.02
0.00 0.00 0.00 0.00 0.00 0.00 0.01 0.02 0.01 0.01 0.01 0.02 0.03 0.04 0.04 0.06 0.09 0.08 0.09 0.14 0.14 0.12 0.09 0.06 0.05 0.06 0.07 0.07 0.06 0.06 0.06 0.05 0.04 0.04 0.03 0.01 0.00 0.00 0.00 0.00 0.01 0.01 0.01 0.01 0.01 0.01 0.01 0.01 0.01
0.00 0.00 0.00 0.00 0.00 0.01 0.01 0.05 0.03 0.01 0.00 0.02 0.02 0.03 0.04 0.05 0.07 0.08 0.09 0.12 0.13 0.09 0.06 0.05 0.04 0.06 0.07 0.06 0.06 0.06 0.06 0.06 0.04 0.03 0.02 0.01 0.00 0.00 0.00 0.00 0.01 0.01 0.01 0.01 0.01 0.00 0.00 0.01 0.01
0.00 0.00 0.00 0.00 0.00 0.01 0.02 0.03 0.04 0.01 0.01 0.01 0.02 0.02 0.03 0.03 0.05 0.07 0.09 0.09 0.08 0.06 0.04 0.04 0.06 0.08 0.07 0.07 0.06 0.05 0.05 0.04 0.03 0.03 0.02 0.01 0.00 0.00 0.00 0.00 0.00 0.00 0.00 0.00 0.00 0.00 0.00 0.00 0.01
0.00 0.00 0.00 0.00 0.02 0.07 0.05 0.03 0.03 0.01 0.01 0.01 0.02 0.03 0.04 0.03 0.05 0.08 0.07 0.06 0.05 0.04 0.03 0.04 0.06 0.07 0.05 0.05 0.05 0.05 0.05 0.03 0.02 0.03 0.02 0.00 0.00 0.00 0.00 0.00 0.00 0.00 0.00 0.00 0.00 0.00 0.00 0.00 0.01
0.00 0.01 0.06 0.12 0.16 0.14 0.04 0.02 0.02 0.00 0.00 0.00 0.01 0.01 0.02 0.02 0.04 0.05 0.04 0.03 0.03 0.03 0.03 0.04 0.05 0.04 0.03 0.03 0.04 0.04 0.04 0.02 0.02 0.02 0.01 0.00 0.00 0.00 0.00 0.00 0.00 0.00 0.00 0.00 0.00 0.00 0.00 0.00 0.01
0.01 0.01 0.06 0.10 0.11 0.08 0.03 0.03 0.02 0.00 0.00 0.00 0.00 0.00 0.00 0.01 0.03 0.03 0.02 0.02 0.02 0.01 0.02 0.03 0.03 0.03 0.03 0.02 0.03 0.03 0.02 0.02 0.02 0.02 0.01 0.00 0.00 0.00 0.00 0.00 0.00 0.00 0.00 0.00 0.00 0.00 0.01 0.01 0.01
0.00 0.00 0.01 0.01 0.01 0.03 0.02 0.01 0.02 0.01 0.00 0.00 0.00 0.00 0.00 0.00 0.01 0.02 0.02 0.02 0.02 0.01 0.01 0.02 0.02 0.02 0.03 0.02 0.02 0.01 0.01 0.02 0.02 0.01 0.00 0.00 0.00 0.00 0.00 0.00 0.00 0.00 0.00 0.00 0.00 0.01 0.01 0.01 0.01
0.00 0.00 0.01 0.01 0.04 0.05 0.05 0.05 0.06 0.04 0.01 0.00 0.00 0.00 0.00 0.00 0.00 0.01 0.01 0.01 0.01 0.01 0.01 0.01 0.02 0.02 0.03 0.02 0.01 0.01 0.01 0.01 0.01 0.01 0.00 0.00 0.00 0.00 0.00 0.00 0.00 0.00 0.00 0.00 0.00 0.01 0.01 0.01 0.01
0.00 0.00 0.00 0.01 0.01 0.03 0.09 0.12 0.08 0.03 0.01 0.00 0.00 0.00 0.00 0.00 0.00 0.00 0.00 0.01 0.01 0.01 0.01 0.01 0.01 0.01 0.01 0.01 0.01 0.00 0.00 0.00 0.01 0.00 0.00 0.00 0.00 0.00 0.00 0.00 0.00 0.00 0.00 0.00 0.00 0.01 0.00 0.00 0.01
0.01 0.01 0.00 0.02 0.04 0.02 0.04 0.07 0.03 0.02 0.01 0.00 0.00 0.00 0.00 0.00 0.00 0.00 0.00 0.01 0.01 0.01 0.01 0.01 0.01 0.00 0.01 0.01 0.01 0.01 0.01 0.01 0.00 0.00 0.00 0.00 0.00 0.00 0.00 0.00 0.00 0.00 0.00 0.00 0.00 0.00 0.00 0.00 0.00
MSLP
1007.71 1008.26 1008.86 1009.36 1009.63 1009.60 1009.24 1008.64 1007.92 1007.21 1006.68 1006.41 1006.43 1006.68 1007.09 1007.53 1007.92 1008.18 1008.32 1008.40 1008.51 1008.73 1009.14 1009.75 1010.52 1011.36 1012.15 1012.81 1013.28 1013.53 1013.62 1013.62 1013.63 1013.71 1013.92 1014.23 1014.60 1014.97 1015.27 1015.46 1015.52 1015.49 1015.40 1015.32 1015.28 1015.31 1015.38 1015.49 1015.59
1007.91 1008.53 1009.11 1009.51 1009.62 1009.39 1008.83 1008.06 1007.21 1006.45 1005.91 1005.66 1005.72 1006.02 1006.47 1006.95 1007.37 1007.67 1007.87 1008.04 1008.26 1008.62 1009.16 1009.88 1010.73 1011.62 1012.43 1013.09 1013.53 1013.77 1013.86 1013.87 1013.89 1013.99 1014.20 1014.50 1014.84 1015.17 1015.42 1015.56 1015.60 1015.57 1015.51 1015.47 1015.48 1015.55 1015.66 1015.77 1015.85
1008.14 1008.78 1009.31 1009.59 1009.53 1009.11 1008.39 1007.49 1006.57 1005.79 1005.28 1005.09 1005.20 1005.55 1006.03 1006.53 1006.96 1007.29 1007.55 1007.79 1008.11 1008.58 1009.22 1010.03 1010.94 1011.85 1012.67 1013.31 1013.74 1013.98 1014.09 1014.13 1014.18 1014.31 1014.53 1014.81 1015.11 1015.38 1015.57 1015.67 1015.68 1015.66 1015.63 1015.65 1015.71 1015.83 1015.96 1016.08 1016.14
1008.31 1008.94 1009.38 1009.52 1009.30 1008.73 1007.90 1006.94 1006.02 1005.29 1004.85 1004.74 1004.92 1005.31 1005.80 1006.30 1006.72 1007.06 1007.35 1007.65 1008.05 1008.60 1009.32 1010.19 1011.13 1012.04 1012.84 1013.46 1013.89 1014.14 1014.27 1014.36 1014.46 1014.63 1014.87 1015.14 1015.41 1015.63 1015.77 1015.82 1015.82 1015.81 1015.82 1015.88 1015.99 1016.15 1016.30 1016.40 1016.43
1008.40 1008.96 1009.27 1009.26 1008.90 1008.23 1007.35 1006.41 1005.56 1004.95 1004.63 1004.62 1004.88 1005.30 1005.79 1006.26 1006.65 1006.97 1007.27 1007.61 1008.06 1008.67 1009.45 1010.34 1011.28 1012.17 1012.94 1013.53 1013.94 1014.20 1014.37 1014.52 1014.69 1014.91 1015.18 1015.46 1015.71 1015.90 1016.00 1016.03 1016.02 1016.02 1016.06 1016.16 1016.31 1016.48 1016.63 1016.71 1016.70
1008.37 1008.80 1008.97 1008.81 1008.34 1007.61 1006.76 1005.91 1005.20 1004.75 1004.59 1004.71 1005.03 1005.48 1005.94 1006.35 1006.69 1006.97 1007.26 1007.62 1008.11 1008.76 1009.57 1010.47 1011.39 1012.25 1012.96 1013.51 1013.90 1014.17 1014.38 1014.58 1014.82 1015.11 1015.43 1015.73 1015.98 1016.16 1016.24 1016.26 1016.25 1016.27 1016.33 1016.45 1016.62 1016.80 1016.93 1016.98 1016.93
1008.23 1008.50 1008.49 1008.20 1007.64 1006.92 1006.15 1005.45 1004.94 1004.69 1004.71 1004.96 1005.34 1005.79 1006.20 1006.54 1006.80 1007.03 1007.29 1007.65 1008.16 1008.85 1009.67 1010.57 1011.46 1012.27 1012.93 1013.42 1013.78 1014.05 1014.28 1014.54 1014.84 1015.20 1015.56 1015.91 1016.18 1016.36 1016.44 1016.47 1016.47 1016.50 1016.58 1016.72 1016.89 1017.05 1017.16 1017.18 1017.09
1008.01 1008.09 1007.91 1007.50 1006.90 1006.22 1005.58 1005.08 1004.79 1004.76 1004.96 1005.32 1005.75 1006.17 1006.52 1006.77 1006.94 1007.10 1007.32 1007.68 1008.21 1008.91 1009.75 1010.64 1011.50 1012.25 1012.85 1013.29 1013.61 1013.87 1014.12 1014.41 1014.77 1015.17 1015.59 1015.96 1016.26 1016.46 1016.56 1016.59 1016.61 1016.66 1016.75 1016.90 1017.07 1017.22 1017.31 1017.29 1017.18
1007.73 1007.63 1007.30 1006.80 1006.20 1005.61 1005.12 1004.83 1004.78 1004.96 1005.32 1005.78 1006.23 1006.61 1006.87 1007.02 1007.10 1007.19 1007.37 1007.72 1008.26 1008.97 1009.81 1010.68 1011.51 1012.21 1012.75 1013.14 1013.43 1013.66 1013.92 1014.23 1014.62 1015.06 1015.51 1015.91 1016.23 1016.44 1016.56 1016.61 1016.65 1016.71 1016.83 1016.98 1017.15 1017.29 1017.37 1017.34 1017.23
1007.43 1007.19 1006.75 1006.21 1005.64 1005.16 1004.85 1004.77 1004.93 1005.30 1005.79 1006.31 1006.76 1007.09 1007.26 1007.30 1007.29 1007.31 1007.46 1007.79 1008.33 1009.04 1009.87 1010.73 1011.51 1012.17 1012.66 1013.01 1013.26 1013.48 1013.73 1014.05 1014.45 1014.90 1015.36 1015.77 1016.09 1016.31 1016.44 1016.51 1016.57 1016.66 1016.79 1016.96 1017.14 1017.29 1017.36 1017.35 1017.24
1007.17 1006.82 1006.33 1005.79 1005.29 1004.94 1004.80 1004.91 1005.25 1005.76 1006.35 1006.90 1007.33 1007.59 1007.68 1007.64 1007.55 1007.51 1007.62 1007.93 1008.45 1009.15 1009.96 1010.79 1011.54 1012.16 1012.61 1012.93 1013.16 1013.36 1013.60 1013.91 1014.30 1014.74 1015.19 1015.58 1015.90 1016.12 1016.25 1016.34 1016.41 1016.52 1016.67 1016.86 1017.06 1017.23 1017.33 1017.34 1017.27
1006.97 1006.58 1006.09 1005.59 1005.19 1004.97 1004.99 1005.26 1005.74 1006.34 1006.98 1007.53 1007.93 1008.13 1008.15 1008.04 1007.89 1007.81 1007.89 1008.17 1008.67 1009.34 1010.11 1010.90 1011.61 1012.18 1012.61 1012.91 1013.12 1013.32 1013.55 1013.85 1014.22 1014.63 1015.05 1015.41 1015.70 1015.91 1016.04 1016.13 1016.22 1016.35 1016.52 1016.73 1016.96 1017.15 1017.29 1017.33 1017.31
1006.86 1006.49 1006.04 1005.63 1005.34 1005.26 1005.41 1005.79 1006.35 1007.00 1007.64 1008.17 1008.53 1008.68 1008.66 1008.52 1008.35 1008.25 1008.31 1008.56 1009.02 1009.63 1010.35 1011.07 1011.73 1012.26 1012.66 1012.95 1013.17 1013.37 1013.60 1013.88 1014.22 1014.60 1014.97 1015.29 1015.55 1015.74 1015.86 1015.95 1016.05 1016.19 1016.38 1016.61 1016.86 1017.09 1017.25 1017.35 1017.36
1006.86 1006.54 1006.19 1005.88 1005.72 1005.75 1005.99 1006.44 1007.02 1007.66 1008.27 1008.77 1009.09 1009.22 1009.19 1009.06 1008.91 1008.82 1008.88 1009.10 1009.51 1010.06 1010.68 1011.33 1011.91 1012.40 1012.78 1013.06 1013.29 1013.50 1013.73 1014.00 1014.32 1014.65 1014.98 1015.26 1015.48 1015.64 1015.75 1015.84 1015.95 1016.10 1016.30 1016.54 1016.80 1017.04 1017.24 1017.36 1017.42
1006.96 1006.73 1006.48 1006.30 1006.25 1006.37 1006.67 1007.12 1007.68 1008.28 1008.83 1009.27 1009.56 1009.71 1009.71 1009.64 1009.55 1009.51 1009.58 1009.79 1010.14 1010.60 1011.13 1011.67 1012.17 1012.61 1012.96 1013.24 1013.47 1013.69 1013.93 1014.19 1014.48 1014.77 1015.05 1015.30 1015.49 1015.63 1015.74 1015.84 1015.95 1016.10 1016.30 1016.53 1016.78 1017.02 1017.22 1017.37 1017.46
1007.14 1007.00 1006.86 1006.80 1006.85 1007.04 1007.36 1007.78 1008.27 1008.77 1009.24 1009.63 1009.91 1010.09 1010.17 1010.19 1010.21 1010.25 1010.37 1010.57 1010.87 1011.24 1011.66 1012.09 1012.50 1012.87 1013.18 1013.45 1013.69 1013.92 1014.16 1014.40 1014.67 1014.93 1015.17 1015.39 1015.57 1015.71 1015.82 1015.93 1016.05 1016.20 1016.38 1016.59 1016.81 1017.03 1017.21 1017.36 1017.45
1007.33 1007.28 1007.27 1007.32 1007.46 1007.69 1007.99 1008.35 1008.74 1009.12 1009.49 1009.81 1010.09 1010.32 1010.51 1010.67 1010.82 1010.98 1011.17 1011.39 1011.65 1011.94 1012.26 1012.57 1012.88 1013.18 1013.45 1013.69 1013.93 1014.16 1014.39 1014.62 1014.85 1015.08 1015.30 1015.50 1015.67 1015.83 1015.97 1016.10 1016.24 1016.39 1016.55 1016.72 1016.89 1017.06 1017.21 1017.33 1017.42
1007.46 1007.51 1007.62 1007.79 1008.02 1008.27 1008.54 1008.81 1009.06 1009.31 1009.56 1009.81 1010.09 1010.38 1010.69 1011.01 1011.32 1011.62 1011.90 1012.16 1012.40 1012.63 1012.85 1013.07 1013.29 1013.50 1013.73 1013.95 1014.17 1014.39 1014.60 1014.81 1015.01 1015.21 1015.41 1015.60 1015.79 1015.97 1016.15 1016.32 1016.49 1016.64 1016.78 1016.91 1017.03 1017.13 1017.22 1017.30 1017.37
1007.47 1007.63 1007.88 1008.18 1008.49 1008.77 1008.99 1009.15 1009.25 1009.35 1009.47 1009.65 1009.91 1010.26 1010.69 1011.16 1011.65 1012.10 1012.49 1012.81 1013.05 1013.24 1013.39 1013.52 1013.66 1013.82 1014.00 1014.19 1014.39 1014.59 1014.79 1014.97 1015.14 1015.31 1015.48 1015.68 1015.89 1016.11 1016.34 1016.57 1016.77 1016.95 1017.08 1017.17 1017.23 1017.26 1017.29 1017.32 1017.35
1007.32 1007.62 1008.03 1008.46 1008.86 1009.17 1009.34 1009.39 1009.35 1009.28 1009.26 1009.34 1009.58 1009.97 1010.50 1011.12 1011.76 1012.36 1012.86 1013.25 1013.52 1013.69 1013.79 1013.87 1013.96 1014.08 1014.23 1014.40 1014.59 1014.78 1014.95 1015.10 1015.24 1015.38 1015.54 1015.73 1015.97 1016.24 1016.53 1016.82 1017.08 1017.28 1017.42 1017.48 1017.49 1017.47 1017.43 1017.40 1017.41
1007.03 1007.50 1008.08 1008.67 1009.18 1009.51 1009.65 1009.59 1009.39 1009.16 1008.98 1008.96 1009.14 1009.55 1010.15 1010.87 1011.64 1012.36 1012.97 1013.43 1013.74 1013.92 1014.01 1014.07 1014.14 1014.24 1014.39 1014.57 1014.76 1014.94 1015.10 1015.23 1015.33 1015.45 1015.59 1015.79 1016.05 1016.36 1016.71 1017.06 1017.38 1017.62 1017.77 1017.84 1017.81 1017.74 1017.65 1017.59 1017.56
1006.66 1007.33 1008.10 1008.86 1009.47 1009.84 1009.93 1009.77 1009.43 1009.02 1008.69 1008.54 1008.65 1009.03 1009.66 1010.45 1011.31 1012.12 1012.82 1013.35 1013.70 1013.90 1014.01 1014.08 1014.17 1014.29 1014.47 1014.68 1014.90 1015.10 1015.26 1015.37 1015.46 1015.55 1015.68 1015.87 1016.14 1016.49 1016.88 1017.28 1017.65 1017.94 1018.12 1018.19 1018.16 1018.07 1017.95 1017.85 1017.81
1006.33 1007.20 1008.17 1009.08 1009.78 1010.18 1010.23 1009.96 1009.48 1008.91 1008.42 1008.14 1008.15 1008.49 1009.10 1009.92 1010.82 1011.69 1012.45 1013.03 1013.42 1013.67 1013.81 1013.92 1014.05 1014.23 1014.47 1014.74 1015.01 1015.25 1015.44 1015.56 1015.65 1015.72 1015.83 1016.01 1016.27 1016.62 1017.04 1017.47 1017.88 1018.20 1018.41 1018.51 1018.49 1018.40 1018.28 1018.17 1018.11
1006.16 1007.22 1008.35 1009.38 1010.14 1010.54 1010.53 1010.16 1009.54 1008.83 1008.19 1007.78 1007.69 1007.95 1008.53 1009.33 1010.25 1011.14 1011.93 1012.54 1012.98 1013.27 1013.46 1013.63 1013.82 1014.08 1014.39 1014.75 1015.10 1015.40 1015.64 1015.80 1015.89 1015.96 1016.05 1016.20 1016.44 1016.78 1017.18 1017.62 1018.03 1018.38 1018.62 1018.74 1018.75 1018.68 1018.58 1018.48 1018.43
1006.24 1007.44 1008.68 1009.77 1010.54 1010.90 1010.81 1010.34 1009.59 1008.75 1007.99 1007.47 1007.28 1007.47 1007.99 1008.76 1009.66 1010.56 1011.35 1011.98 1012.45 1012.77 1013.02 1013.25 1013.53 1013.87 1014.28 1014.72 1015.17 1015.56 1015.86 1016.06 1016.18 1016.25 1016.32 1016.44 1016.64 1016.93 1017.30 1017.71 1018.11 1018.45 1018.71 1018.86 1018.90 1018.87 1018.80 1018.73 1018.70
1006.57 1007.86 1009.13 1010.20 1010.92 1011.19 1011.01 1010.42 1009.57 1008.63 1007.78 1007.18 1006.92 1007.05 1007.53 1008.26 1009.12 1010.00 1010.78 1011.42 1011.91 1012.27 1012.57 1012.86 1013.21 1013.63 1014.13 1014.67 1015.21 1015.68 1016.06 1016.32 1016.47 1016.55 1016.61 1016.70 1016.85 1017.08 1017.38 1017.74 1018.10 1018.42 1018.68 1018.84 1018.92 1018.93 1018.91 1018.88 1018.89
1007.11 1008.39 1009.60 1010.57 1011.17 1011.32 1011.02 1010.34 1009.41 1008.40 1007.51 1006.88 1006.59 1006.69 1007.13 1007.83 1008.66 1009.51 1010.29 1010.93 1011.43 1011.82 1012.15 1012.50 1012.91 1013.40 1013.98 1014.59 1015.21 1015.76 1016.21 1016.52 1016.72 1016.82 1016.88 1016.93 1017.03 1017.19 1017.42 1017.71 1018.02 1018.30 1018.55 1018.72 1018.83 1018.88 1018.91 1018.93 1018.98
1007.71 1008.90 1009.96 1010.76 1011.19 1011.19 1010.76 1010.00 1009.02 1008.01 1007.13 1006.52 1006.26 1006.36 1006.79 1007.47 1008.28 1009.11 1009.87 1010.50 1011.01 1011.43 1011.80 1012.18 1012.64 1013.18 1013.80 1014.47 1015.14 1015.75 1016.25 1016.62 1016.86 1016.99 1017.06 1017.10 1017.16 1017.27 1017.44 1017.65 1017.90 1018.14 1018.36 1018.53 1018.66 1018.75 1018.82 1018.89 1018.97
1008.20 1009.20 1010.05 1010.62 1010.85 1010.68 1010.15 1009.34 1008.38 1007.42 1006.61 1006.07 1005.87 1006.01 1006.46 1007.14 1007.93 1008.74 1009.49 1010.12 1010.64 1011.08 1011.48 1011.90 1012.38 1012.95 1013.59 1014.28 1014.98 1015.62 1016.16 1016.58 1016.86 1017.03 1017.12 1017.17 1017.22 1017.30 1017.42 1017.59 1017.78 1017.98 1018.17 1018.34 1018.48 1018.59 1018.69 1018.79 1018.90
1008.40 1009.17 1009.75 1010.08 1010.09 1009.78 1009.17 1008.36 1007.46 1006.61 1005.92 1005.50 1005.40 1005.61 1006.09 1006.77 1007.56 1008.35 1009.08 1009.72 1010.26 1010.71 1011.14 1011.58 1012.09 1012.66 1013.31 1014.00 1014.70 1015.35 1015.91 1016.36 1016.69 1016.91 1017.04 1017.13 1017.20 1017.28 1017.39 1017.53 1017.69 1017.87 1018.03 1018.19 1018.33 1018.45 1018.57 1018.69 1018.81
Thickness
5842 5845 5846 5839 5821 5808 5800 5818 5844 5848 5850 5858 5857 5849 5833 5815 5805 5794 5826 5838 5831 5818 5809 5802 5798 5794 5790 5787 5783 5780 5777 5774 5771 5769 5767 5765 5764 5762 5761 5760 5759 5758 5757 5756 5755 5754 5753 5752 5752
5846 5849 5844 5831 5810 5794 5803 5829 5833 5845 5853 5858 5855 5846 5830 5818 5827 5825 5830 5832 5826 5816 5807 5801 5795 5791 5788 5784 5781 5778 5775 5772 5769 5767 5765 5763 5762 5760 5759 5758 5756 5755 5754 5754 5753 5752 5751 5750 5750
5843 5848 5833 5823 5812 5808 5817 5839 5843 5853 5859 5853 5845 5842 5828 5817 5826 5827 5830 5831 5823 5815 5806 5797 5792 5788 5785 5782 5779 5776 5773 5770 5767 5765 5763 5761 5759 5758 5757 5755 5754 5753 5752 5751 5750 5750 5749 5748 5748
5841 5839 5830 5818 5813 5835 5844 5852 5852 5848 5851 5851 5843 5827 5823 5830 5831 5831 5832 5829 5819 5811 5802 5793 5789 5785 5782 5779 5776 5774 5771 5768 5765 5763 5761 5759 5757 5755 5754 5753 5751 5750 5749 5748 5747 5747 5746 5746 5745
5840 5828 5813 5809 5821 5844 5856 5860 5855 5842 5841 5844 5836 5813 5806 5825 5835 5832 5829 5824 5816 5809 5799 5791 5786 5782 5779 5776 5774 5771 5768 5766 5763 5761 5759 5757 5755 5753 5752 5750 5749 5747 5747 5746 5745 5744 5744 5743 5743
5827 5824 5805 5807 5828 5848 5857 5861 5853 5841 5838 5842 5832 5810 5800 5820 5824 5825 5826 5820 5816 5806 5796 5787 5783 5779 5776 5774 5771 5768 5766 5764 5761 5759 5757 5755 5753 5751 5749 5748 5747 5745 5744 5743 5742 5741 5741 5740 5740
5818 5813 5807 5819 5832 5844 5852 5856 5846 5837 5831 5833 5834 5804 5797 5810 5819 5823 5821 5817 5812 5805 5794 5786 5781 5776 5774 5771 5768 5766 5763 5761 5759 5757 5755 5753 5751 5749 5748 5746 5745 5743 5742 5741 5740 5739 5738 5738 5738
5831 5815 5809 5823 5831 5839 5852 5850 5848 5838 5831 5841 5833 5804 5790 5805 5816 5819 5816 5812 5806 5799 5792 5786 5780 5776 5772 5769 5766 5764 5761 5759 5757 5755 5754 5752 5750 5748 5746 5745 5743 5741 5740 5739 5738 5737 5736 5736 5736
5834 5806 5803 5822 5832 5839 5849 5840 5843 5846 5834 5830 5826 5816 5807 5810 5812 5808 5804 5801 5796 5793 5789 5786 5780 5775 5773 5769 5765 5761 5759 5756 5755 5753 5752 5750 5749 5747 5745 5743 5741 5740 5739 5737 5736 5735 5734 5734 5734
5824 5801 5814 5835 5842 5840 5842 5836 5835 5830 5820 5813 5809 5806 5807 5803 5802 5797 5795 5790 5787 5784 5784 5783 5779 5775 5772 5769 5763 5761 5758 5754 5753 5751 5750 5748 5748 5746 5745 5742 5740 5738 5737 5736 5734 5734 5733 5733 5733
5824 5814 5826 5837 5844 5839 5833 5829 5832 5817 5801 5801 5797 5790 5795 5796 5795 5793 5791 5788 5784 5782 5780 5779 5775 5773 5771 5767 5762 5760 5756 5753 5751 5750 5748 5747 5746 5745 5743 5740 5738 5736 5735 5735 5734 5733 5732 5733 5733
5823 5826 5831 5834 5839 5833 5828 5824 5819 5812 5803 5808 5806 5796 5790 5788 5787 5787 5784 5782 5780 5778 5776 5774 5772 5769 5768 5765 5762 5759 5756 5752 5750 5748 5747 5746 5744 5743 5741 5739 5737 5736 5735 5734 5733 5733 5732 5732 5733
5823 5825 5833 5836 5835 5832 5826 5818 5811 5807 5809 5810 5806 5797 5792 5787 5786 5784 5780 5778 5775 5772 5770 5768 5767 5764 5764 5762 5760 5758 5755 5752 5749 5747 5746 5744 5743 5742 5740 5738 5736 5735 5733 5732 5732 5731 5731 5731 5731
5828 5830 5832 5834 5833 5830 5819 5813 5805 5798 5803 5800 5796 5789 5786 5783 5782 5778 5773 5770 5769 5768 5765 5764 5762 5760 5759 5758 5756 5754 5753 5750 5748 5746 5744 5742 5741 5740 5738 5736 5735 5734 5732 5731 5731 5730 5729 5729 5729
5831 5820 5820 5826 5826 5824 5815 5797 5792 5793 5797 5791 5788 5783 5777 5775 5774 5771 5768 5767 5766 5764 5762 5759 5758 5757 5755 5754 5753 5752 5750 5749 5746 5743 5741 5740 5739 5738 5737 5735 5733 5732 5731 5731 5730 5729 5728 5727 5727
5820 5808 5796 5813 5821 5821 5803 5776 5790 5798 5790 5784 5782 5777 5770 5766 5765 5765 5764 5762 5762 5760 5758 5756 5756 5752 5751 5750 5750 5749 5749 5746 5743 5741 5739 5738 5737 5736 5735 5734 5731 5731 5730 5729 5728 5727 5725 5724 5724
5799 5789 5789 5803 5820 5819 5802 5782 5791 5798 5791 5780 5776 5771 5765 5758 5758 5759 5758 5758 5757 5755 5753 5751 5751 5749 5748 5747 5747 5746 5745 5744 5742 5740 5738 5736 5735 5735 5734 5732 5730 5730 5729 5728 5727 5724 5723 5721 5721
5790 5794 5798 5803 5816 5813 5799 5790 5793 5798 5791 5779 5773 5766 5759 5753 5751 5755 5756 5756 5754 5752 5750 5748 5747 5746 5746 5745 5743 5742 5742 5741 5740 5739 5736 5734 5733 5732 5731 5730 5729 5729 5727 5725 5723 5722 5722 5721 5720
5813 5808 5805 5811 5819 5809 5799 5792 5794 5796 5789 5779 5769 5763 5757 5752 5752 5754 5754 5753 5750 5747 5745 5743 5742 5742 5743 5741 5739 5737 5736 5738 5738 5737 5735 5733 5732 5731 5730 5729 5727 5726 5724 5722 5721 5720 5719 5719 5720
5813 5803 5802 5807 5816 5807 5797 5793 5798 5797 5788 5779 5769 5763 5759 5752 5750 5750 5750 5749 5746 5744 5743 5741 5740 5741 5741 5740 5739 5739 5738 5737 5737 5735 5733 5732 5731 5730 5730 5727 5726 5724 5722 5720 5720 5718 5715 5716 5718
5807 5803 5800 5799 5808 5808 5794 5781 5784 5790 5789 5781 5774 5767 5763 5755 5750 5748 5748 5746 5745 5742 5741 5742 5740 5740 5740 5740 5739 5738 5736 5735 5733 5731 5731 5731 5730 5729 5727 5726 5724 5723 5722 5719 5717 5716 5714 5711 5713
5798 5814 5810 5805 5794 5784 5786 5755 5772 5782 5777 5775 5771 5767 5762 5758 5753 5750 5748 5746 5744 5743 5743 5742 5740 5739 5739 5739 5738 5736 5732 5731 5731 5732 5731 5731 5730 5729 5727 5725 5723 5721 5720 5718 5716 5714 5712 5710 5708
5809 5820 5812 5804 5792 5779 5775 5756 5759 5778 5770 5771 5771 5767 5764 5761 5756 5751 5749 5747 5746 5745 5743 5741 5739 5738 5738 5738 5738 5736 5734 5733 5734 5732 5730 5730 5729 5728 5727 5724 5722 5720 5718 5716 5714 5712 5710 5708 5705
5821 5812 5801 5789 5770 5744 5755 5754 5753 5776 5777 5778 5775 5771 5765 5762 5759 5754 5751 5748 5746 5745 5743 5741 5737 5736 5737 5737 5736 5735 5734 5733 5732 5730 5728 5728 5728 5727 5725 5723 5720 5718 5716 5714 5712 5709 5707 5705 5702
5810 5787 5755 5738 5726 5727 5762 5761 5765 5792 5800 5792 5782 5775 5770 5766 5761 5755 5751 5748 5746 5745 5744 5741 5737 5735 5735 5735 5735 5734 5734 5733 5731 5730 5729 5729 5727 5725 5723 5723 5719 5716 5714 5712 5709 5707 5704 5702 5699
5800 5787 5754 5731 5729 5741 5759 5759 5782 5804 5806 5801 5791 5783 5775 5768 5764 5759 5755 5752 5750 5749 5745 5741 5737 5735 5735 5734 5734 5734 5734 5733 5732 5731 5730 5729 5728 5725 5723 5720 5718 5715 5712 5711 5707 5705 5702 5699 5696
5796 5791 5795 5770 5765 5758 5761 5768 5781 5796 5796 5794 5789 5782 5776 5772 5767 5763 5760 5756 5754 5751 5747 5743 5738 5736 5734 5734 5733 5732 5733 5733 5732 5731 5730 5728 5726 5724 5721 5719 5716 5713 5710 5708 5705 5701 5699 5697 5694
5811 5804 5789 5771 5749 5742 5747 5748 5748 5767 5780 5788 5786 5782 5779 5776 5772 5768 5764 5761 5758 5755 5751 5747 5741 5737 5736 5734 5733 5733 5732 5732 5731 5729 5727 5726 5724 5722 5719 5716 5714 5711 5708 5705 5702 5699 5697 5694 5691
5792 5791 5785 5777 5772 5752 5730 5733 5767 5774 5785 5789 5790 5788 5784 5779 5776 5772 5768 5765 5762 5758 5753 5748 5744 5739 5737 5736 5735 5734 5732 5731 5729 5727 5726 5724 5722 5719 5716 5714 5712 5709 5706 5703 5699 5697 5695 5691 5688
5785 5784 5779 5758 5752 5760 5748 5741 5782 5789 5794 5797 5795 5793 5789 5785 5782 5777 5772 5768 5763 5759 5755 5751 5747 5742 5740 5738 5736 5734 5732 5730 5728 5726 5724 5722 5719 5717 5715 5712 5709 5706 5704 5701 5697 5693 5692 5689 5685